1496984400.81,868,18.19,74100.3,9.19,-26.71,-27.29,0,*76
1496984402.06,869,18.13,74098.5,9.21,-25.71,-26.33,0,*75
1496984403.25,870,18.13,74100.0,9.21,-25.87,-26.49,0,*79
1496984404.45,871,18.13,74102.5,9.25,-25.81,-26.49,0,*7A
1496984405.7,872,18.13,74098.0,9.23,-26.49,-27.19,0,*7C
1496984406.91,873,18.13,74098.8,9.25,-26.17,-26.65,0,*7A
1496984408.15,874,18.13,74100.3,9.23,-26.97,-27.55,0,*71
1496984409.36,875,18.13,74096.8,9.25,-27.35,-27.93,0,*75
1496984410.61,876,18.13,74096.3,9.23,-27.67,-28.25,0,*75
1496984411.85,877,18.19,74102.5,9.23,-26.97,-27.51,0,*76
1496984413.09,878,18.13,74098.0,9.23,-27.67,-28.43,0,*7B
1496984414.33,879,18.13,74098.8,9.23,-27.55,-28.21,0,*7F
1496984415.57,880,18.13,74098.8,9.23,-27.51,-28.21,0,*7D
1496984416.81,881,18.13,74100.8,9.23,-27.89,-28.59,0,*76
1496984418.06,882,18.19,74100.3,9.23,-28.21,-28.85,0,*79
1496984419.26,883,18.13,74098.3,9.19,-28.31,-29.07,0,*7B
1496984420.53,884,18.13,74098.5,9.19,-28.05,-28.59,0,*71
1496984421.79,885,18.13,74096.5,9.19,-28.05,-28.79,0,*72
1496984423.01,886,18.13,74098.3,9.17,-27.77,-28.47,0,*78
1496984424.2,887,18.19,74100.3,9.17,-28.31,-28.85,0,*7A
1496984425.41,888,18.13,74098.8,9.15,-27.51,-28.15,0,*77
1496984426.63,889,18.13,74100.0,9.17,-27.13,-27.83,0,*72
1496984427.87,890,18.13,74096.3,9.17,-26.97,-27.61,0,*7B
1496984429.12,891,18.19,74100.5,9.17,-26.13,-26.77,0,*70
1496984430.32,892,18.13,74102.0,9.17,-26.65,-27.29,0,*78
1496984431.54,893,18.13,74102.0,9.17,-26.97,-27.67,0,*7E
1496984432.8,894,18.13,74100.0,9.17,-27.61,-28.21,0,*7C
1496984433.99,895,18.19,74102.8,9.17,-27.77,-28.53,0,*7F
1496984435.2,896,18.13,74100.8,9.17,-27.77,-28.47,0,*79
1496984436.41,897,18.13,74098.5,9.17,-27.83,-28.53,0,*76
1496984437.64,898,18.13,74100.5,9.17,-27.61,-28.31,0,*71
1496984438.88,899,18.13,74100.3,9.15,-27.51,-28.09,0,*7A
1496984440.12,900,18.13,74098.3,9.15,-27.45,-28.15,0,*73
1496984441.38,901,18.13,74100.3,9.15,-27.35,-27.99,0,*7E
1496984442.59,902,18.19,74102.5,9.15,-27.13,-27.77,0,*79
1496984443.82,903,18.13,74098.8,9.17,-27.19,-27.83,0,*7B
1496984445.01,904,18.13,74100.3,9.17,-26.45,-27.13,0,*7D
1496984446.24,905,18.13,74102.3,9.17,-27.19,-28.09,0,*70
1496984447.43,906,18.13,74102.0,9.17,-27.77,-28.37,0,*76
1496984448.66,907,18.13,74098.8,9.15,-27.99,-28.69,0,*7E
1496984449.88,908,18.13,74100.0,9.15,-27.93,-28.53,0,*72
1496984451.09,909,18.13,74100.8,9.15,-28.15,-28.85,0,*79
1496984452.33,910,18.13,74098.5,9.15,-28.79,-29.57,0,*75
1496984453.54,911,18.13,74102.0,9.15,-27.77,-28.31,0,*74
1496984454.74,912,18.19,74102.5,9.13,-26.49,-27.13,0,*72
1496984455.96,913,18.13,74100.0,9.13,-26.33,-27.03,0,*7F
1496984457.18,914,18.13,74102.5,9.13,-25.97,-26.65,0,*74
1496984458.39,915,18.19,74106.3,9.17,-25.81,-26.49,0,*78
1496984459.65,916,18.13,74100.3,9.15,-28.21,-29.01,0,*7D
1496984460.85,917,18.13,74104.8,9.17,-27.07,-27.67,0,*7B
1496984462.06,918,18.13,74102.5,9.15,-27.93,-28.53,0,*73
1496984463.3,919,18.13,74102.0,9.15,-27.51,-28.09,0,*73
1496984464.54,920,18.13,74098.3,9.15,-27.29,-27.83,0,*7B
1496984465.77,921,18.13,74100.5,9.15,-27.13,-27.83,0,*73
1496984467.01,922,18.13,74100.5,9.15,-27.13,-27.83,0,*70
1496984468.22,923,18.13,74102.8,9.15,-26.49,-27.13,0,*76
1496984469.43,924,18.13,74102.3,9.17,-26.61,-27.19,0,*73
1496984470.66,925,18.19,74104.8,9.17,-26.03,-26.77,0,*7F
1496984471.92,926,18.13,74102.3,9.19,-25.45,-26.13,0,*71
1496984473.18,927,18.19,74104.0,9.19,-26.29,-26.93,0,*71
1496984474.38,928,18.19,74104.8,9.21,-26.03,-26.65,0,*74
1496984475.62,929,18.19,74104.3,9.21,-26.71,-27.35,0,*74
1496984476.84,930,18.19,74104.0,9.21,-26.97,-27.55,0,*72
1496984478.08,931,18.13,74100.8,9.19,-26.61,-27.39,0,*7B
1496984479.32,932,18.13,74102.3,9.21,-26.81,-27.39,0,*7D
1496984480.56,933,18.19,74104.8,9.21,-27.23,-28.09,0,*79
1496984481.79,934,18.13,74104.5,9.21,-26.97,-27.67,0,*77
1496984483.02,935,18.13,74100.0,9.19,-28.15,-28.91,0,*7F
1496984484.22,936,18.13,74098.0,9.21,-27.03,-27.67,0,*79
1496984485.43,937,18.19,74102.8,9.21,-28.37,-29.29,0,*74
1496984486.63,938,18.13,74100.8,9.19,-28.97,-29.79,0,*7F
1496984487.86,939,18.13,74100.8,9.19,-29.45,-30.27,0,*73
1496984489.1,940,18.13,74100.3,9.15,-29.83,-30.61,0,*79
1496984490.34,941,18.19,74102.0,9.15,-29.57,-30.55,0,*76
1496984491.59,942,18.13,74102.0,9.11,-29.67,-30.55,0,*72
1496984492.81,943,18.13,74098.8,9.11,-28.97,-29.67,0,*74
1496984494.05,944,18.13,74102.8,9.11,-29.29,-30.27,0,*7B
1496984495.28,945,18.13,74100.0,9.05,-28.37,-29.13,0,*7E
1496984496.52,946,18.13,74100.3,9.09,-28.05,-28.79,0,*7D
1496984497.73,947,18.13,74100.3,9.05,-28.85,-29.67,0,*76
1496984498.99,948,18.13,74098.3,9.05,-28.09,-29.01,0,*7D
1496984500.24,949,18.13,74098.8,9.05,-28.09,-28.79,0,*72
1496984501.47,950,18.13,74098.3,9.05,-27.67,-28.47,0,*70
1496984502.72,951,18.13,74096.5,9.05,-29.13,-29.73,0,*7A
1496984503.91,952,18.13,74096.0,9.03,-27.07,-27.77,0,*7E
1496984505.09,953,18.19,74100.8,9.03,-26.87,-27.51,0,*72
1496984506.3,954,18.13,74098.3,9.03,-27.71,-28.21,0,*75
1496984507.55,955,18.13,74102.0,9.05,-27.99,-28.79,0,*79
1496984508.77,956,18.13,74096.3,9.09,-27.51,-28.25,0,*7B
1496984509.98,957,18.13,74096.0,9.05,-27.13,-27.77,0,*78
1496984511.23,958,18.13,74100.0,9.05,-26.77,-27.45,0,*75
1496984512.44,959,18.19,74100.8,9.05,-26.61,-27.29,0,*79
1496984513.64,960,18.19,74098.5,9.09,-26.39,-27.07,0,*7E
1496984514.83,961,18.13,74100.0,9.09,-26.61,-27.29,0,*7E
1496984516.04,962,18.13,74096.8,9.05,-28.31,-28.85,0,*73
1496984517.26,963,18.19,74100.0,9.11,-27.07,-27.77,0,*7F
1496984518.48,964,18.13,74100.8,9.11,-26.61,-27.29,0,*72
1496984519.74,965,18.13,74098.0,9.11,-26.55,-27.19,0,*77
1496984521.02,966,18.19,74100.3,9.11,-26.77,-27.39,0,*76
1496984522.25,967,18.13,74102.8,9.13,-26.55,-27.19,0,*77
1496984523.49,968,18.13,74096.5,9.13,-26.71,-27.39,0,*7C
1496984524.74,969,18.19,74102.8,9.11,-26.33,-26.87,0,*7D
1496984525.95,970,18.13,74098.0,9.15,-26.61,-27.29,0,*73
1496984527.2,971,18.13,74098.3,9.15,-26.81,-27.51,0,*73
1496984528.43,972,18.19,74100.5,9.15,-26.45,-26.97,0,*73
1496984529.65,973,18.19,74098.5,9.17,-25.75,-26.49,0,*73
1496984530.84,974,18.13,74100.0,9.17,-26.45,-27.13,0,*7A
1496984532.1,975,18.13,74102.3,9.15,-26.97,-27.61,0,*73
1496984533.33,976,18.13,74096.0,9.17,-26.97,-27.67,0,*74
1496984534.57,977,18.19,74098.5,9.17,-26.13,-26.81,0,*70
1496984535.76,978,18.13,74098.0,9.17,-27.13,-27.93,0,*7C
1496984537.0,979,18.13,74098.5,9.19,-27.03,-27.61,0,*7F
1496984538.22,980,18.13,74096.0,9.19,-26.39,-27.03,0,*75
1496984539.43,981,18.13,74096.3,9.21,-26.07,-26.71,0,*76
1496984540.61,982,18.13,74102.0,9.21,-26.23,-26.87,0,*7A
1496984541.82,983,18.13,74102.5,9.21,-25.91,-26.71,0,*78
1496984543.06,984,18.13,74100.0,9.21,-27.39,-28.43,0,*70
1496984544.31,985,18.13,74098.8,9.21,-28.21,-28.91,0,*78
1496984545.5,986,18.13,74102.0,9.21,-27.13,-27.89,0,*73
1496984546.73,987,18.13,74100.3,9.21,-27.19,-27.83,0,*72
1496984547.92,988,18.13,74094.8,9.21,-27.03,-27.67,0,*7C
1496984549.14,989,18.19,74100.3,9.21,-27.23,-27.71,0,*78
1496984550.38,990,18.13,74098.8,9.19,-26.61,-27.39,0,*70
1496984551.62,991,18.19,74102.8,9.21,-26.71,-27.35,0,*77
1496984552.83,992,18.13,74098.3,9.19,-26.61,-27.13,0,*7A
1496984554.05,993,18.19,74100.3,9.21,-26.03,-26.81,0,*7E
1496984555.29,994,18.13,74102.5,9.23,-26.17,-26.87,0,*78
1496984556.5,995,18.13,74100.8,9.23,-26.23,-26.87,0,*7E
1496984557.75,996,18.19,74104.3,9.25,-26.33,-26.97,0,*7B
1496984558.93,997,18.19,74104.0,9.25,-27.13,-27.77,0,*76
1496984560.19,998,18.13,74102.3,9.23,-26.71,-27.45,0,*7B
1496984561.38,999,18.13,74100.5,9.25,-26.49,-27.29,0,*7D
1496984562.6,1000,18.13,74096.5,9.25,-25.75,-26.45,0,*42
1496984563.82,1001,18.13,74102.3,9.25,-26.33,-27.13,0,*40
1496984565.04,1002,18.13,74098.8,9.25,-26.61,-27.19,0,*4E
1496984566.29,1003,18.13,74102.0,9.25,-25.75,-26.33,0,*40
1496984567.56,1004,18.13,74102.0,9.27,-26.17,-26.77,0,*42
1496984568.77,1005,18.13,74100.3,9.31,-26.23,-26.87,0,*4C
1496984570.01,1006,18.13,74100.3,9.31,-26.23,-26.93,0,*4A
1496984571.27,1007,18.19,74100.3,9.31,-25.97,-26.71,0,*4B
1496984572.51,1008,18.13,74100.0,9.31,-27.13,-27.61,0,*4A
1496984573.78,1009,18.19,74102.8,9.31,-26.77,-27.45,0,*4E
1496984575.02,1010,18.13,74102.5,9.31,-26.13,-26.87,0,*4B
1496984576.24,1011,18.13,74102.3,9.33,-26.17,-26.87,0,*4C
1496984577.49,1012,18.13,74102.8,9.35,-26.17,-27.03,0,*44
1496984578.73,1013,18.19,74106.0,9.35,-26.33,-26.87,0,*4E
1496984579.97,1014,18.19,74104.3,9.35,-26.23,-26.81,0,*4E
1496984581.18,1015,18.13,74104.3,9.35,-25.65,-26.23,0,*46
1496984582.43,1016,18.13,74102.3,9.35,-25.55,-26.23,0,*46
1496984583.67,1017,18.13,74100.3,9.35,-26.87,-27.39,0,*41
1496984584.94,1018,18.19,74106.3,9.35,-26.33,-26.93,0,*40
1496984586.15,1019,18.13,74100.5,9.37,-25.45,-25.87,0,*47
1496984587.41,1020,18.13,74102.8,9.39,-26.13,-26.81,0,*46
1496984588.65,1021,18.13,74100.5,9.39,-26.49,-27.19,0,*48
1496984589.88,1022,18.19,74104.8,9.39,-25.65,-26.17,0,*49
1496984591.08,1023,18.13,74102.3,9.43,-25.23,-25.87,0,*4D
1496984592.31,1024,18.13,74106.3,9.43,-25.55,-26.03,0,*44
1496984593.53,1025,18.13,74102.5,9.43,-26.39,-27.19,0,*46
1496984594.76,1026,18.13,74102.0,9.43,-26.49,-27.19,0,*42
1496984595.95,1027,18.13,74104.5,9.43,-25.39,-26.07,0,*49
1496984597.18,1028,18.13,74102.0,9.43,-26.65,-27.23,0,*4B
1496984598.43,1029,18.13,74104.0,9.41,-26.45,-27.23,0,*4A
1496984599.65,1030,18.13,74102.0,9.43,-27.55,-28.09,0,*47
1496984600.91,1031,18.13,74102.0,9.41,-27.83,-28.43,0,*41
1496984602.16,1032,18.13,74102.0,9.41,-27.23,-27.93,0,*4A
1496984603.39,1033,18.13,74102.3,9.43,-26.65,-27.35,0,*46
1496984604.63,1034,18.13,74102.5,9.41,-26.23,-26.93,0,*4C
1496984605.85,1035,18.19,74106.3,9.43,-26.49,-27.19,0,*40
1496984607.08,1036,18.13,74104.8,9.43,-26.65,-27.23,0,*44
1496984608.3,1037,18.13,74102.3,9.43,-25.75,-26.49,0,*4A
1496984609.57,1038,18.13,74104.0,9.45,-26.55,-27.35,0,*48
1496984610.85,1039,18.13,74106.3,9.45,-25.71,-26.33,0,*4B
1496984612.09,1040,18.13,74102.5,9.45,-25.91,-26.55,0,*4B
1496984613.33,1041,18.13,74106.5,9.45,-27.19,-27.77,0,*49
1496984614.6,1042,18.13,74104.3,9.45,-26.29,-26.97,0,*47
1496984615.79,1043,18.13,74102.5,9.47,-25.35,-26.03,0,*47
1496984617.01,1044,18.19,74106.3,9.47,-26.17,-26.87,0,*4F
1496984618.21,1045,18.13,74102.5,9.47,-26.45,-27.03,0,*44
1496984619.43,1046,18.13,74100.8,9.49,-27.03,-27.67,0,*48
1496984620.67,1047,18.19,74104.3,9.53,-26.39,-26.97,0,*44
1496984621.91,1048,18.13,74102.5,9.49,-27.35,-28.15,0,*49
1496984623.13,1049,18.13,74106.5,9.49,-26.87,-27.67,0,*4A
1496984624.4,1050,18.13,74102.5,9.49,-26.71,-27.35,0,*4C
1496984625.64,1051,18.19,74104.5,9.49,-26.87,-27.61,0,*45
1496984626.88,1052,18.13,74106.8,9.49,-26.71,-27.51,0,*4C
1496984628.1,1053,18.13,74104.3,9.53,-27.13,-27.93,0,*4D
1496984629.29,1054,18.13,74106.0,9.47,-26.87,-27.67,0,*48
1496984630.51,1055,18.19,74104.8,9.47,-26.33,-27.03,0,*44
1496984631.76,1056,18.19,74104.8,9.47,-26.81,-27.61,0,*4A
1496984633.0,1057,18.19,74104.0,9.49,-27.03,-27.83,0,*42
1496984634.25,1058,18.13,74104.5,9.47,-28.63,-29.51,0,*4B
1496984635.49,1059,18.19,74106.3,9.47,-28.21,-28.91,0,*41
1496984636.74,1060,18.19,74104.5,9.45,-27.55,-28.21,0,*4E
1496984637.96,1061,18.19,74102.3,9.47,-26.61,-27.35,0,*41
1496984639.21,1062,18.13,74104.3,9.45,-25.75,-26.49,0,*4C
1496984640.46,1063,18.13,74102.3,9.45,-26.17,-27.03,0,*45
1496984641.65,1064,18.19,74104.5,9.47,-26.49,-27.13,0,*4A
1496984642.87,1065,18.13,74100.5,9.47,-26.45,-26.97,0,*4A
1496984644.07,1066,18.13,74104.0,9.47,-26.03,-26.65,0,*46
1496984645.34,1067,18.19,74104.8,9.49,-26.29,-26.97,0,*4C
1496984646.56,1068,18.13,74100.0,9.49,-26.61,-27.29,0,*4B
1496984647.8,1069,18.13,74102.5,9.49,-26.29,-26.87,0,*43
1496984649.07,1070,18.13,74100.3,9.49,-26.17,-26.81,0,*40
1496984650.31,1071,18.13,74102.8,9.49,-26.71,-27.51,0,*4D
1496984651.58,1072,18.13,74104.0,9.53,-26.13,-26.81,0,*4D
1496984652.82,1073,18.19,74106.3,9.53,-25.81,-26.61,0,*4A
1496984654.07,1074,18.13,74100.5,9.53,-25.61,-26.13,0,*46
1496984655.26,1075,18.13,74100.5,9.55,-26.07,-26.61,0,*47
1496984656.53,1076,18.13,74100.5,9.57,-25.55,-26.17,0,*43
1496984657.78,1077,18.13,74102.3,9.55,-26.33,-26.93,0,*4F
1496984659.0,1078,18.13,74100.3,9.57,-26.03,-26.49,0,*46
1496984660.24,1079,18.19,74104.0,9.57,-26.17,-26.87,0,*40
1496984661.47,1080,18.19,74104.0,9.59,-26.65,-27.19,0,*4B
1496984662.72,1081,18.13,74102.0,9.61,-25.49,-26.13,0,*47
1496984663.94,1082,18.19,74106.8,9.59,-25.87,-26.33,0,*4F
1496984665.17,1083,18.19,74104.3,9.61,-26.61,-27.29,0,*44
1496984666.41,1084,18.13,74102.5,9.59,-26.13,-26.81,0,*4E
1496984667.65,1085,18.19,74106.5,9.61,-26.23,-26.81,0,*47
1496984668.9,1086,18.13,74100.0,9.61,-26.65,-27.39,0,*44
1496984670.16,1087,18.19,74104.0,9.59,-25.71,-26.33,0,*43
1496984671.4,1088,18.19,74104.0,9.61,-25.29,-25.91,0,*41
1496984672.61,1089,18.19,74106.8,9.63,-25.81,-26.49,0,*46
1496984673.86,1090,18.13,74102.0,9.65,-25.75,-26.39,0,*44
1496984675.08,1091,18.13,74104.8,9.65,-26.03,-26.61,0,*4A
1496984676.32,1092,18.19,74106.3,9.65,-25.91,-26.55,0,*46
1496984677.57,1093,18.19,74106.3,9.63,-25.71,-26.33,0,*4F
1496984678.82,1094,18.13,74102.5,9.65,-26.03,-26.55,0,*48
1496984680.04,1095,18.19,74104.8,9.67,-25.65,-26.33,0,*48
1496984681.26,1096,18.13,74106.5,9.67,-26.49,-27.19,0,*4F
1496984682.51,1097,18.19,74108.8,9.67,-26.29,-26.81,0,*48
1496984683.78,1098,18.19,74104.3,9.69,-26.17,-26.97,0,*43
1496984684.98,1099,18.13,74104.8,9.67,-25.65,-26.39,0,*4E
1496984686.22,1100,18.19,74106.0,9.69,-25.35,-26.13,0,*4C
1496984687.46,1101,18.13,74102.5,9.69,-26.55,-27.29,0,*40
1496984688.73,1102,18.19,74106.8,9.69,-27.35,-27.99,0,*4F
1496984689.97,1103,18.19,74106.0,9.69,-25.81,-26.39,0,*48
1496984691.22,1104,18.19,74104.0,9.69,-25.81,-26.39,0,*4F
1496984692.45,1105,18.13,74100.8,9.73,-25.49,-26.07,0,*4C
1496984693.69,1106,18.13,74100.3,9.71,-26.13,-26.77,0,*46
1496984694.9,1107,18.19,74104.8,9.73,-25.65,-26.23,0,*46
1496984696.13,1108,18.19,74106.0,9.73,-26.07,-26.65,0,*4C
1496984697.38,1109,18.19,74102.3,9.73,-26.65,-27.35,0,*4D
1496984698.65,1110,18.13,74102.5,9.73,-26.77,-27.45,0,*41
1496984699.9,1111,18.19,74106.3,9.73,-26.45,-27.23,0,*41
1496984701.14,1112,18.13,74100.3,9.73,-25.19,-25.75,0,*49
1496984702.34,1113,18.19,74104.5,9.79,-25.09,-25.65,0,*42
1496984703.59,1114,18.13,74102.3,9.79,-25.55,-26.17,0,*4A
1496984704.81,1115,18.13,74102.3,9.79,-25.55,-26.23,0,*4C
1496984706.03,1116,18.13,74102.3,9.79,-25.23,-25.81,0,*45
1496984707.25,1117,18.13,74102.0,9.79,-25.49,-26.13,0,*40
1496984708.49,1118,18.13,74100.8,9.83,-25.29,-25.81,0,*44
1496984709.77,1119,18.13,74104.0,9.81,-26.81,-27.39,0,*47
1496984710.96,1120,18.13,74102.5,9.83,-25.91,-26.49,0,*4B
1496984712.17,1121,18.13,74104.5,9.83,-25.35,-25.97,0,*44
1496984713.42,1122,18.13,74102.3,9.85,-25.19,-25.97,0,*4F
1496984714.63,1123,18.13,74106.5,9.87,-24.97,-25.45,0,*44
1496984715.88,1124,18.13,74102.5,9.85,-25.61,-26.29,0,*40
1496984717.1,1125,18.13,74102.5,9.89,-25.65,-26.39,0,*48
1496984718.3,1126,18.13,74102.0,9.91,-25.35,-26.03,0,*4E
1496984719.52,1127,18.19,74106.0,9.89,-25.65,-26.23,0,*41
1496984720.74,1128,18.19,74106.5,9.91,-25.39,-25.97,0,*42
1496984721.94,1129,18.19,74104.5,9.91,-25.49,-26.03,0,*4A
1496984723.19,1130,18.19,74104.0,9.93,-25.03,-25.61,0,*49
1496984724.4,1131,18.13,74100.3,9.95,-24.93,-25.45,0,*40
1496984725.63,1132,18.19,74106.8,9.95,-25.55,-26.23,0,*4B
1496984726.85,1133,18.13,74100.0,9.95,-25.23,-25.71,0,*4F
1496984728.08,1134,18.13,74100.8,9.99,-25.71,-26.39,0,*4C
1496984729.27,1135,18.13,74102.3,9.99,-25.23,-25.87,0,*4C
1496984730.52,1136,18.13,74102.3,10.01,-26.07,-26.77,0,*7F
1496984731.74,1137,18.13,74102.8,10.01,-25.49,-25.91,0,*7C
1496984732.96,1138,18.19,74104.8,10.01,-25.49,-26.07,0,*7F
1496984734.18,1139,18.13,74102.0,9.99,-25.61,-26.13,0,*48
1496984735.43,1140,18.13,74102.8,10.03,-25.75,-26.29,0,*71
1496984736.66,1141,18.13,74100.8,10.03,-25.65,-26.13,0,*78
1496984737.85,1142,18.13,74102.0,10.03,-25.35,-25.87,0,*70
1496984739.1,1143,18.19,74106.8,10.05,-25.29,-25.97,0,*7B
1496984740.32,1144,18.13,74102.3,10.03,-25.65,-26.17,0,*79
1496984741.55,1145,18.13,74100.5,10.07,-26.45,-27.13,0,*78
1496984742.83,1146,18.19,74104.0,10.07,-25.55,-26.13,0,*78
1496984744.03,1147,18.13,74100.0,10.09,-25.23,-25.91,0,*7F
1496984745.23,1148,18.13,74102.3,10.09,-25.39,-26.03,0,*73
1496984746.43,1149,18.13,74106.3,10.09,-25.39,-26.03,0,*72
1496984747.68,1150,18.13,74100.0,10.09,-25.29,-25.75,0,*79
1496984748.92,1151,18.13,74104.8,10.11,-25.49,-26.03,0,*75
1496984750.12,1152,18.13,74100.0,10.13,-25.09,-25.65,0,*73
1496984751.34,1153,18.13,74098.8,10.13,-25.65,-26.29,0,*73
1496984752.54,1154,18.13,74098.8,10.13,-25.87,-26.45,0,*72
1496984753.76,1155,18.13,74102.5,10.13,-26.13,-26.65,0,*7F
1496984754.99,1156,18.13,74104.3,10.13,-25.65,-26.17,0,*7B
1496984756.21,1157,18.13,74104.0,10.13,-25.71,-26.45,0,*78
1496984757.46,1158,18.19,74106.3,10.15,-25.19,-25.81,0,*74
1496984758.66,1159,18.19,74104.0,10.17,-26.45,-27.07,0,*71
1496984759.94,1160,18.19,74104.8,10.15,-25.71,-26.33,0,*7B
1496984761.19,1161,18.13,74106.3,10.17,-25.29,-25.81,0,*7F
1496984762.41,1162,18.13,74106.0,10.17,-25.09,-25.75,0,*75
1496984763.63,1163,18.13,74104.0,10.17,-25.09,-25.81,0,*7F
1496984764.85,1164,18.13,74104.3,10.17,-25.91,-26.55,0,*73
1496984766.08,1165,18.13,74106.3,10.23,-25.39,-26.03,0,*74
1496984767.3,1166,18.19,74106.8,10.21,-25.75,-26.49,0,*73
1496984768.52,1167,18.13,74102.5,10.23,-25.39,-26.07,0,*72
1496984769.77,1168,18.13,74104.8,10.23,-25.87,-26.33,0,*7F
1496984771.0,1169,18.13,74106.5,10.23,-25.39,-26.03,0,*78
1496984772.28,1170,18.13,74102.3,10.23,-26.17,-26.77,0,*7C
1496984773.48,1171,18.13,74106.3,10.25,-26.03,-26.65,0,*7D
1496984774.73,1172,18.13,74104.5,10.27,-25.35,-25.97,0,*74
1496984775.97,1173,18.13,74100.3,10.27,-25.29,-25.87,0,*79
1496984777.22,1174,18.19,74104.8,10.27,-25.35,-25.97,0,*72
1496984778.42,1175,18.13,74100.5,10.29,-26.07,-26.65,0,*71
1496984779.69,1176,18.13,74100.3,10.27,-26.29,-26.81,0,*7A
1496984780.94,1177,18.13,74104.3,10.27,-26.55,-27.29,0,*73
1496984782.23,1178,18.19,74104.5,10.27,-26.33,-26.97,0,*78
1496984783.48,1179,18.13,74104.0,10.27,-26.33,-27.13,0,*74
1496984784.74,1180,18.13,74102.8,10.27,-26.97,-27.71,0,*78
1496984785.96,1181,18.13,74102.0,10.27,-27.67,-28.53,0,*78
1496984787.18,1182,18.13,74102.3,10.25,-26.87,-27.45,0,*7E
1496984788.43,1183,18.13,74104.8,10.25,-25.71,-26.33,0,*75
1496984789.65,1184,18.13,74102.5,10.27,-25.87,-26.45,0,*78
1496984790.92,1185,18.13,74100.8,10.27,-26.13,-26.71,0,*70
1496984792.2,1186,18.13,74100.5,10.27,-25.55,-26.17,0,*72
1496984793.45,1187,18.13,74100.0,10.27,-26.17,-26.87,0,*7F
1496984794.68,1188,18.19,74108.0,10.29,-25.49,-26.13,0,*7B
1496984795.94,1189,18.19,74106.3,10.31,-26.03,-26.71,0,*7A
1496984797.13,1190,18.13,74106.3,10.29,-26.45,-27.07,0,*79
1496984798.38,1191,18.19,74106.8,10.31,-26.39,-27.19,0,*75
1496984799.6,1192,18.13,74106.3,10.29,-25.81,-26.49,0,*7B
1496984800.85,1193,18.19,74106.0,10.31,-26.61,-27.23,0,*73
1496984802.1,1194,18.13,74104.5,10.31,-26.17,-26.87,0,*7A
1496984803.33,1195,18.13,74104.3,10.31,-26.45,-27.03,0,*71
1496984804.58,1196,18.13,74100.5,10.31,-25.61,-26.17,0,*73
1496984805.83,1197,18.13,74106.5,10.31,-25.75,-26.45,0,*70
1496984807.08,1198,18.19,74106.8,10.33,-25.71,-26.29,0,*73
1496984808.3,1199,18.13,74106.3,10.33,-25.71,-26.49,0,*74
1496984809.55,1200,18.19,74106.8,10.33,-25.55,-26.13,0,*7E
1496984810.77,1201,18.13,74104.0,10.35,-25.87,-26.49,0,*79
1496984812.02,1202,18.13,74104.0,10.37,-25.65,-26.33,0,*79
1496984813.29,1203,18.13,74106.0,10.35,-25.97,-26.55,0,*77
1496984814.54,1204,18.13,74102.5,10.39,-26.13,-26.81,0,*7A
1496984815.79,1205,18.19,74108.8,10.37,-25.75,-26.45,0,*7E
1496984817.02,1206,18.19,74106.5,10.39,-25.75,-26.45,0,*73
1496984818.28,1207,18.19,74106.3,10.39,-25.75,-26.33,0,*73
1496984819.5,1208,18.13,74102.3,10.39,-25.81,-26.49,0,*7A
1496984820.74,1209,18.13,74104.0,10.37,-25.81,-26.45,0,*79
1496984822.0,1210,18.13,74104.8,10.39,-26.77,-27.61,0,*72
1496984823.25,1211,18.13,74104.8,10.39,-27.35,-28.25,0,*7B
1496984824.49,1212,18.19,74106.8,10.39,-27.45,-28.15,0,*7C
1496984825.74,1213,18.13,74106.0,10.37,-26.93,-27.77,0,*72
1496984826.94,1214,18.13,74104.8,10.39,-26.49,-27.07,0,*7B
1496984828.19,1215,18.13,74104.5,10.37,-25.75,-26.49,0,*73
1496984829.39,1216,18.13,74104.8,10.39,-25.61,-26.23,0,*77
1496984830.62,1217,18.13,74106.3,10.39,-26.77,-27.51,0,*76
1496984831.87,1218,18.13,74104.0,10.39,-25.75,-26.33,0,*7D
1496984833.1,1219,18.19,74104.3,10.39,-25.97,-26.65,0,*73
1496984834.35,1220,18.13,74104.0,10.41,-25.45,-26.03,0,*79
1496984835.6,1221,18.13,74104.8,10.45,-25.97,-26.65,0,*73
1496984836.85,1222,18.13,74104.8,10.41,-25.55,-26.07,0,*7E
1496984838.12,1223,18.13,74106.3,10.41,-25.75,-26.55,0,*7A
1496984839.37,1224,18.13,74106.3,10.45,-26.49,-27.19,0,*7C
1496984840.64,1225,18.13,74102.5,10.41,-26.17,-26.71,0,*7D
1496984841.89,1226,18.13,74104.8,10.45,-26.17,-26.87,0,*73
1496984843.11,1227,18.19,74106.0,10.45,-25.65,-26.23,0,*7A
1496984844.33,1228,18.19,74110.8,10.47,-25.35,-25.97,0,*7E
1496984845.59,1229,18.19,74110.8,10.49,-25.13,-25.75,0,*79
1496984846.84,1230,18.13,74106.3,10.49,-25.49,-26.13,0,*7D
1496984848.09,1231,18.13,74106.0,10.49,-25.35,-25.97,0,*78
1496984849.33,1232,18.13,74106.0,10.53,-26.07,-26.71,0,*79
1496984850.56,1233,18.13,74108.3,10.51,-25.35,-25.97,0,*73
1496984851.83,1234,18.19,74108.8,10.53,-25.03,-25.55,0,*7D
1496984853.03,1235,18.13,74106.0,10.55,-25.39,-26.07,0,*77
1496984854.26,1236,18.19,74108.8,10.55,-26.03,-26.71,0,*7F
1496984855.51,1237,18.13,74106.0,10.57,-26.81,-27.51,0,*75
1496984856.73,1238,18.13,74104.3,10.55,-26.71,-27.51,0,*77
1496984857.98,1239,18.13,74106.0,10.57,-26.65,-27.35,0,*73
1496984859.19,1240,18.19,74110.8,10.55,-25.49,-26.07,0,*72
1496984860.41,1241,18.19,74110.8,10.57,-25.39,-26.03,0,*72
1496984861.6,1242,18.13,74106.3,10.55,-26.23,-26.87,0,*77
1496984862.86,1243,18.19,74106.5,10.57,-26.33,-27.03,0,*78
1496984864.14,1244,18.13,74106.0,10.57,-26.33,-26.81,0,*74
1496984865.39,1245,18.13,74106.0,10.57,-25.55,-26.23,0,*7E
1496984866.61,1246,18.13,74106.3,10.59,-25.49,-26.17,0,*79
1496984867.86,1247,18.19,74108.5,10.59,-26.17,-26.93,0,*7C
1496984869.11,1248,18.13,74104.3,10.61,-25.71,-26.39,0,*7B
1496984870.33,1249,18.13,74104.3,10.59,-25.45,-26.03,0,*7F
1496984871.53,1250,18.19,74108.3,10.63,-24.93,-25.61,0,*73
1496984872.73,1251,18.19,74108.5,10.63,-25.35,-26.03,0,*78
1496984873.97,1252,18.13,74104.0,10.63,-25.45,-26.13,0,*7D
1496984875.19,1253,18.13,74104.8,10.67,-25.03,-25.65,0,*78
1496984876.42,1254,18.13,74104.3,10.69,-24.87,-25.61,0,*78
1496984877.69,1255,18.13,74104.5,10.71,-25.45,-26.13,0,*79
1496984878.94,1256,18.13,74104.3,10.71,-25.65,-26.29,0,*71
1496984880.14,1257,18.19,74106.3,10.69,-25.49,-26.03,0,*7F
1496984881.37,1258,18.13,74104.8,10.71,-25.13,-25.65,0,*75
1496984882.62,1259,18.13,74108.0,10.71,-25.81,-26.45,0,*7E
1496984883.83,1260,18.13,74106.5,10.73,-26.07,-26.77,0,*7A
1496984885.08,1261,18.19,74106.0,10.75,-25.81,-26.39,0,*7A
1496984886.35,1262,18.13,74102.3,10.75,-26.13,-26.77,0,*7B
1496984887.55,1263,18.13,74100.5,10.73,-27.07,-27.93,0,*73
1496984888.76,1264,18.19,74106.5,10.73,-26.61,-27.39,0,*75
1496984889.98,1265,18.13,74104.8,10.73,-25.45,-26.07,0,*7D
1496984891.22,1266,18.13,74106.8,10.75,-25.61,-26.29,0,*72
1496984892.45,1267,18.13,74104.3,10.75,-25.61,-26.39,0,*72
1496984893.66,1268,18.13,74104.5,10.75,-25.61,-26.23,0,*76
1496984894.88,1269,18.13,74108.3,10.75,-25.23,-25.91,0,*7B
1496984896.15,1270,18.13,74106.3,10.75,-25.55,-26.13,0,*7B
1496984897.34,1271,18.13,74106.0,10.77,-25.65,-26.23,0,*78
1496984898.59,1272,18.13,74106.8,10.79,-26.17,-26.87,0,*7D
1496984899.81,1273,18.19,74108.3,10.79,-26.03,-26.87,0,*79
1496984901.01,1274,18.19,74108.5,10.81,-26.65,-27.51,0,*73
1496984902.25,1275,18.13,74104.8,10.79,-25.65,-26.17,0,*75
1496984903.5,1276,18.13,74102.8,10.79,-25.13,-25.81,0,*7B
1496984904.75,1277,18.13,74104.0,10.81,-25.71,-26.29,0,*78
1496984905.94,1278,18.19,74106.3,10.81,-25.65,-26.45,0,*78
1496984907.18,1279,18.13,74102.3,10.83,-25.23,-25.81,0,*72
1496984908.42,1280,18.13,74104.5,10.83,-25.75,-26.39,0,*77
1496984909.7,1281,18.13,74102.0,10.83,-26.97,-27.83,0,*79